Regional Weather Roundup
Issued by NWS Austin/San Antonio, TX

Home | Current Version | Previous Version | Graphics & Text | Print | Product List | Glossary On
Versions: 1 2 3 4 5 6 7 8 9 10 11 12 13 14 15 16 17 18 19 20 21 22 23 24 25 26 27 28 29 30 31 32 33 34 35 36 37 38 39 40 41 42 43 44 45 46 47 48 49 50
000
ASUS44 KEWX 291611
RWREWX
SOUTH TEXAS REGIONAL WEATHER ROUNDUP
NATIONAL WEATHER SERVICE AUSTIN/SAN ANTONIO TX
1100 AM CDT THU JUN 29 2017

NOTE: "FAIR" INDICATED FEW OR NO CLOUDS BELOW 12,000 FEET WITH NO
SIGNIFICANT WEATHER AND/OR OBSTRUCTIONS TO VISIBILITY.

* - THESE STATIONS ARE NOT NWS OR FAA STATIONS...AND ARE NOT SUBJECT
    TO NWS AND FAA QUALITY CONTROL.

TXZ171-172-183>190-291700-
TEXAS HILL COUNTRY AND EDWARDS PLATEAU

CITY           SKY/WX    TMP DP  RH WIND       PRES   REMARKS
JUNCTION       SUNNY     87  69  54 S12G20    29.90S HX  91
*LLANO         MOSUNNY   88  72  58 S12       29.92F HX  94
BURNET         MOSUNNY   86  70  58 S10       29.93F HX  90
*HORSESHOE BAY MOSUNNY   86  71  60 MISG      29.91S HX  91
*KERRVILLE     PTSUNNY   84  74  70 S13       29.93S HX  91
*FREDERICKSBRG PTSUNNY   84  69  59 S13       29.93S
*ROCKSPRINGS   MOSUNNY   84  73  70 S14       29.96S HX  91
*BOERNE STAGE  MOSUNNY   82  70  65 S9        29.94S
*CASTROVILLE   PTSUNNY   87  71  58 SE10      29.91F HX  93
HONDO          SUNNY     88  73  61 S9        29.90S HX  95
*UVALDE        SUNNY     87  74  65 SE10      29.89F HX  94
DEL RIO        SUNNY     86  73  65 SE13      29.85F HX  93
LAUGHLIN AFB   MOSUNNY   88  74  63 S9        29.86F HX  96
CARRIZO SPRGS  SUNNY     88  72  58 SE10      29.86S HX  94
*EAGLE PASS    SUNNY     91  72  52 SE8       29.86S HX  98
$$

TXZ173-191>194-202-209-217>225-228-291700-
CENTRAL AND SOUTH CENTRAL TEXAS

CITY           SKY/WX    TMP DP  RH WIND       PRES   REMARKS
GEORGETOWN     MOSUNNY   86  70  58 S10G16    29.90F HX  90
AUSTIN/BERGSTM PTSUNNY   85  75  72 S10       29.90S HX  93
AUSTIN/MABRY   PTSUNNY   85  73  67 S8        29.91S HX  91
*AUSTIN/EXEC     N/A     82  73  74 S9        29.91F
*LAGO VISTA    PTSUNNY   85  73  66 S6        29.93S HX  92
SAN MARCOS     PTSUNNY   82  75  78 S6        29.92F FOG
NEW BRAUNFELS  PTSUNNY   84  74  71 S8        29.90S HX  91
RANDOLPH AFB   PTSUNNY   82  78  87 S7        29.91S HX  91
PT SAN ANTONIO MOSUNNY   82  75  78 E6        29.89S
SAN ANTONIO    PTSUNNY   83  73  72 E7        29.91F
STINSON FIELD  PTSUNNY   86  75  69 SE7       29.88F HX  95
*LA GRANGE     PTSUNNY   87  77  71 S7        29.89S HX  99
*GIDDINGS      PTSUNNY   83  72  69 S8        29.92S
*GONZALES      PTSUNNY   87  77  72 S10       29.90S HX  99
$$

TXZ163>164-176>182-195>201-210>213-226-227-235-291700-
SOUTHEAST TEXAS

CITY           SKY/WX    TMP DP  RH WIND       PRES   REMARKS
COLLEGE STN    PTSUNNY   83  74  74 S8        29.90S
*BRYAN         PTSUNNY   84  73  70 SW6       29.92S HX  90
*CALDWELL      NOT AVBL
*CROCKETT      PTSUNNY   79  73  83 S6        29.94F
*BRENHAM       CLOUDY    86  75  69 S7        29.91F HX  94
HUNTSVILLE     PTSUNNY   84  72  67 VRB5      29.92S
CONROE         PTSUNNY   84  75  74 CALM      29.90F HX  92
HOUSTON BUSH   PTSUNNY   86  74  67 VRB7      29.89F HX  94
HOUSTON HOBBY  CLOUDY    86  75  69 SW10      29.90S HX  95
*HOUSTON SW AP CLOUDY    83  76  77 SW5       29.92S HX  91
PEARLAND       CLOUDY    84  74  71 SW8       29.92S HX  91
HOUSTON HOOKS  CLOUDY    86  75  69 W7        29.90F HX  95
ELLINGTON FLD  PTSUNNY   88  75  66 S6        29.92S HX  97
SUGAR LAND     CLOUDY    87  77  72 S10       29.90F HX  99
*HOUSTON EXEC  CLOUDY    84  77  79 SW3       29.91F HX  94
*CLEVELAND MUN CLOUDY    84  76  75 CALM      29.91F HX  93
*WHARTON       MOSUNNY   85  76  73 S7        29.91F HX  94
*COLUMBUS      PTSUNNY   86  75  70 SW8       29.91F HX  94
*EAGLE LAKE    CLOUDY    86  79  79 W7        29.90  HX  99
$$

TXZ214>216-236>238-291700-
THE UPPER TEXAS COAST

CITY           SKY/WX    TMP DP  RH WIND       PRES   REMARKS
*ORANGE        PTSUNNY   79  79  99 SW6       29.94S
PORT ARTHUR    PTSUNNY   81  77  88 S3        29.92F
GALVESTON      TSTM      79  78  97 S17       29.93R VSB 1
ANGLETON       CLOUDY    82  78  88 SW6       29.90F HX  91
*BAY CITY      CLOUDY    80  77  89 S7        29.92S
PALACIOS       LGT RAIN  80  78  94 S7        29.91R FOG
$$

TXZ229>234-239>247-291700-
TEXAS COASTAL BEND AND RIO GRANDE PLAINS

CITY           SKY/WX    TMP DP  RH WIND       PRES   REMARKS
VICTORIA       PTSUNNY   88  74  63 SW13      29.89S HX  96
*BEEVILLE      MOSUNNY   90  76  63 S13G21    29.88F HX 101
ROCKPORT       MOSUNNY   87  76  69 S14G22    29.88S HX  97
*PORT ARANSAS  MOSUNNY   87  77  72 S17       29.88S HX  98
*PORT LAVACA   PTSUNNY   84  79  85 CALM      29.90S HX  96
*INGLESIDE     SUNNY     89  77  66 MISG      29.88S HX 101
CORPUS CHRISTI MOSUNNY   88  76  67 S18       29.87F HX  99
CORPUS NAS     MOSUNNY   92  78  63 S17G24    29.88F HX 107
*ROBSTOWN      MOSUNNY   88  75  66 S14       29.88F HX  98
ALICE          SUNNY     91  73  55 S15G26    29.87F HX  99
KINGSVILLE NAS MOSUNNY   90  78  68 S18       29.87F HX 104
COTULLA        SUNNY     87  73  62 S7        29.87F HX  94
*FAITH RANCH   SUNNY     90  73  58 SE9       29.87S HX  98
LAREDO         SUNNY     89  74  60 SE14      29.87F HX  98
$$

TXZ248>255-291700-
DEEP SOUTH TEXAS

CITY           SKY/WX    TMP DP  RH WIND       PRES   REMARKS
BROWNSVILLE    PTSUNNY   88  78  72 S20G25    29.89S HX 101
PORT ISABEL    MOSUNNY   92  77  61 S20G29    29.87S HX 105
*SOUTH PADRE   NOT AVBL
HARLINGEN      MOSUNNY   90  77  65 S18G28    29.86F HX 103
*HEBBRONVILLE  SUNNY     88  70  54 S10       29.89S HX  93
MCALLEN        MOSUNNY   94  74  52 SE18G28   29.87S HX 104
*WESLACO       PTSUNNY   90  74  60 S16G23    29.87S HX  99
FALFURRIAS     SUNNY     91  73  56 S15G22    29.87F HX  99
EDINBURG       MOSUNNY   94  70  44 S20G25    29.87S HX 100
*ZAPATA        SUNNY     89  73  59 SE8       29.86S HX  96
$$

TXZ213>215-236>238-242>244-246-247-251-254-255-291700-
CMAN STATIONS

STATION/POSITION TIME  TEMP    WIND        PRES    WAVE
                       AIR SEA DIR/SP/G            HT/PER
                 (UTC) (F)     (DEG/KT/KT) (MB)    (FT/S)
SABINE PASS      1548   81 84  210/  8/ 18 1014.3
SEA RIM ST PARK  1600   82     230/ 13/ 16 1013.5
NORTH JETTY/GLS  1542      84  360/  2/  3 1012.7
EAGLE POINT      1548   81 83  240/  9/ 13 1012.9
MORGANS POINT    1548   81 84  230/  7/ 11 1012.6
MISSION/ARANSAS  1500          200/ 12       N/A
PORT O`CONNOR    1548   81     190/ 10/ 14 1012.4
PORT ARANSAS     1600   84 85  190/ 19/ 20 1011.7
MALAQUITE BEACH  1548   85 85  170/ 17/ 20 1011.2
PORT ISABEL      1548   85 85              1012.0
$$



USA.gov is the U.S. government's official web portal to all federal, state and local government web resources and services.